STARLINK-1470 (45772 NORAD) Tracking and Keplerian Element Data

This shows tracking and keplerian element data for the satellite.

Feedback or suggestion? Click here.




ElementValue
Catalog45772
NameSTARLINK-1470
Epoch Orbit462
Epoch Day186.50001157
Epoch Year2020
RAAN192.6713
Inclination53.0001
Eccentricity0.0001522
Argument of Perigee79.6424
Mean Anonmoly142.5577
Mean Motion15.62736808
Decay Rate0.00053237
L11 45772U 20038AU 20186.50001157 .00053237 00000-0 58379-3 0 9999
L22 45772 53.0001 192.6713 0001522 79.6424 142.5577 15.62736808 4626

Live tracking and technical data element details for STARLINK-1470 (NORAD 45772). STARLINK-1470 can be tracked NOW for your location showing map with azimuth and elevation plus other details from your city location.

Track the satellite on the map from your city or location and see movement details for azimuth, elevation, latitude, longitude, range, height, and movement on the map or in text.







IsCatalogInMostPopularTable: catalog: 45772, numindb: 4
Update: records affected: 1



GetName: 45772 STARLINK-1470

Hit Count: updated at: Sun, 05 Jul 2020 17:47:03 GMT